Temp
71 70 69 68 56 49 42 51 55 62 64 68 71 69 70 73 71 64 74 79 77 76 76 78 79 79 79 79 79 78 78 78 78 78 78 78 78 78 78 78 78 79 80 80 79 79 79 79 79
72 75 69 60 49 42 45 52 55 61 68 72 71 70 68 70 82 74 73 77 78 77 76 77 78 79 79 79 78 78 78 78 78 78 78 78 78 78 78 78 78 79 80 80 79 79 79 79 79
74 75 65 55 45 46 49 55 60 64 70 68 69 76 74 75 78 77 78 77 79 76 76 76 78 79 79 79 78 78 78 78 78 78 78 78 78 77 77 78 78 79 80 80 79 79 79 78 78
71 68 63 51 49 55 59 58 62 66 70 71 71 70 78 82 80 79 78 78 78 76 76 77 78 78 78 79 78 78 78 78 78 78 78 78 78 77 77 77 78 79 80 80 79 78 78 78 77
70 62 50 49 53 59 64 65 65 63 66 70 71 70 71 79 78 77 76 79 78 75 75 77 78 78 78 79 78 78 78 77 77 78 78 78 77 77 77 77 78 79 79 79 79 78 77 77 77
62 59 47 46 59 63 65 68 64 63 67 70 70 70 72 77 77 76 77 75 77 75 74 75 78 78 78 78 78 78 77 77 77 77 78 77 77 77 77 77 77 78 78 79 78 77 77 76 76
60 54 48 51 57 60 66 69 65 63 65 69 73 68 73 79 76 76 74 73 73 74 73 73 75 77 78 78 77 77 77 77 77 77 77 77 77 76 76 77 77 77 77 77 77 77 76 75 75
63 58 50 53 59 58 68 69 69 65 68 77 78 68 68 73 76 74 71 68 68 69 71 70 71 74 74 75 77 77 77 77 77 76 76 76 76 76 76 75 76 77 77 77 77 76 76 75 75
66 52 47 57 58 61 68 64 70 76 72 71 74 74 77 78 77 73 71 70 68 71 68 68 69 69 70 72 75 77 77 77 77 76 76 75 74 74 75 75 75 77 77 76 76 76 75 75 75
58 49 51 61 65 64 68 65 69 70 70 69 71 77 80 78 74 72 70 72 70 70 67 68 68 69 69 74 71 72 73 74 76 75 73 73 71 70 72 74 76 76 76 76 76 76 75 76 71
52 51 59 63 66 67 65 66 71 67 66 68 68 72 76 77 73 73 74 72 72 70 70 69 68 68 70 72 68 69 70 69 69 70 70 69 68 69 71 69 71 70 75 71 74 73 72 71 70
47 57 62 64 68 64 64 68 67 68 69 75 73 74 73 74 75 73 74 77 75 74 74 73 72 70 70 72 69 70 71 69 68 68 68 67 66 66 66 67 67 67 68 68 68 69 69 69 69
47 53 60 62 64 64 66 65 66 67 73 76 75 75 73 73 73 74 72 75 81 79 75 75 73 69 69 69 71 70 70 70 71 68 68 67 66 65 65 66 66 66 66 66 66 67 68 68 69
51 52 56 60 62 63 63 65 66 70 74 74 75 72 72 72 73 71 72 69 74 79 80 75 72 71 69 71 71 71 72 70 69 68 68 68 68 65 65 64 65 65 66 66 66 66 66 67 68
52 47 52 56 60 60 64 58 60 69 71 70 71 71 71 71 72 71 72 71 71 74 76 74 75 74 70 69 69 68 70 68 68 69 68 68 67 66 65 65 64 66 66 66 66 66 66 66 67
44 43 38 50 56 61 60 51 61 65 66 66 67 67 69 69 71 71 71 70 70 70 69 74 78 75 70 71 69 71 68 67 69 67 67 69 68 67 65 65 65 66 65 66 66 65 64 65 65
41 35 38 46 54 56 54 50 60 64 64 63 65 65 66 67 69 68 70 71 71 70 69 71 73 73 71 70 71 71 71 71 72 70 69 69 69 68 66 66 66 65 65 65 66 65 66 64 64
35 36 40 41 50 50 48 49 56 61 61 61 63 64 65 66 67 69 70 70 70 69 68 67 70 73 72 73 71 70 70 70 72 72 72 71 70 69 67 67 66 66 65 64 65 65 65 64 65
43 41 40 45 50 47 46 48 52 57 58 58 60 61 62 64 68 70 70 69 68 67 67 67 67 68 69 71 70 70 70 71 71 73 73 71 71 70 68 68 67 66 66 66 65 65 64 63 64
44 40 39 45 51 48 46 47 53 54 56 58 59 59 60 62 66 68 68 67 65 64 64 65 66 67 68 71 74 73 75 75 76 76 74 73 73 71 69 68 68 67 66 65 65 65 63 64 65
41 39 39 40 45 46 43 41 46 50 54 57 58 59 60 60 61 63 65 64 64 63 63 64 66 66 66 70 68 67 68 67 68 69 71 71 72 71 70 69 68 67 68 66 66 66 65 64 64
37 46 45 43 38 30 43 28 40 46 48 51 55 55 55 57 59 59 61 61 62 62 64 63 63 64 68 68 69 68 75 73 73 77 74 70 71 71 70 69 69 68 68 67 66 67 67 66 63
42 47 42 42 36 30 35 28 34 44 43 46 52 54 55 55 55 57 60 60 62 63 61 60 61 62 66 67 71 73 73 77 73 67 69 69 69 69 71 70 69 68 68 68 67 66 66 68 66
48 42 39 34 30 23 32 31 29 37 43 46 51 54 55 55 56 56 58 59 60 61 61 59 58 60 63 65 68 71 73 74 68 66 68 67 66 67 69 69 69 68 68 68 68 67 67 66 66
41 31 21 21 22 23 34 32 36 45 49 50 50 52 53 53 52 54 55 57 58 60 61 61 60 59 62 64 67 70 72 72 70 70 71 65 65 66 67 68 67 68 68 68 68 67 67 66 66
35 33 23 19 20 23 36 27 33 46 50 51 52 51 52 51 51 51 54 55 57 59 59 59 59 59 62 62 66 68 71 74 74 71 68 68 68 67 68 68 68 69 69 69 69 68 67 66 66
35 30 35 27 27 21 27 34 43 49 48 49 50 51 50 50 50 52 54 55 56 57 58 59 59 59 60 64 66 67 69 69 69 66 67 66 66 67 68 68 68 69 69 69 67 67 66 66 66
40 42 27 24 20 19 25 28 32 42 44 47 47 48 50 49 50 52 54 55 57 58 58 60 60 61 62 63 67 68 69 70 70 64 64 66 66 68 68 68 68 69 69 68 67 66 67 66 64
34 30 31 29 25 19 18 26 39 41 43 43 45 50 49 47 49 50 54 57 58 58 57 60 60 61 60 63 66 67 65 64 64 65 65 66 67 68 68 68 68 69 68 67 67 67 65 66 63
39 34 32 21 21 23 23 30 48 46 44 45 46 48 50 48 48 50 53 56 57 56 57 59 60 62 62 62 64 64 63 64 64 65 66 67 67 68 68 69 69 68 68 67 67 66 66 65 64
MSLP
1009.73 1009.53 1009.64 1010.05 1011.63 1012.53 1012.06 1011.02 1010.06 1008.98 1007.98 1006.88 1006.58 1006.32 1005.63 1005.14 1005.41 1005.00 1003.00 1002.93 1003.07 1004.79 1005.91 1006.57 1006.87 1007.23 1007.74 1008.26 1008.67 1009.09 1009.47 1009.74 1010.08 1010.33 1010.71 1011.11 1011.46 1011.76 1012.06 1012.47 1012.75 1013.02 1013.25 1013.48 1013.80 1013.98 1014.12 1014.39 1014.56
1009.53 1009.48 1009.92 1010.89 1012.21 1012.69 1011.70 1010.34 1009.64 1008.62 1007.58 1006.53 1005.69 1005.32 1005.37 1003.93 1003.23 1003.42 1003.49 1003.25 1002.87 1004.11 1005.34 1006.32 1006.60 1006.67 1007.31 1007.88 1008.32 1008.83 1009.32 1009.73 1010.06 1010.52 1010.94 1011.17 1011.54 1011.84 1012.02 1012.30 1012.64 1012.87 1013.25 1013.51 1013.80 1014.08 1014.24 1014.50 1014.63
1009.56 1009.71 1010.43 1011.44 1012.29 1011.80 1010.94 1009.63 1008.80 1007.99 1007.17 1006.85 1005.85 1004.43 1004.03 1003.05 1002.43 1002.46 1002.33 1003.00 1003.29 1004.32 1005.06 1006.04 1006.59 1006.70 1007.01 1007.69 1008.15 1008.67 1009.14 1009.57 1010.05 1010.48 1010.84 1011.31 1011.46 1011.78 1012.07 1012.30 1012.56 1012.82 1013.15 1013.30 1013.59 1013.98 1014.19 1014.42 1014.63
1009.68 1010.30 1011.38 1011.38 1011.55 1010.56 1009.86 1009.05 1008.26 1007.69 1006.72 1006.43 1005.86 1004.76 1003.48 1002.50 1002.43 1001.93 1002.32 1003.09 1003.42 1004.57 1005.10 1005.92 1006.58 1006.72 1007.21 1007.45 1007.91 1008.44 1008.92 1009.38 1009.90 1010.30 1010.76 1011.23 1011.50 1011.82 1012.31 1012.64 1012.79 1012.95 1013.13 1013.38 1013.74 1013.88 1014.24 1014.39 1014.53
1009.98 1010.68 1011.42 1011.34 1010.28 1009.84 1009.29 1008.56 1007.72 1007.39 1007.21 1006.12 1005.79 1004.77 1003.66 1003.01 1002.92 1002.19 1002.74 1003.20 1003.40 1004.73 1005.44 1006.09 1006.53 1006.81 1007.07 1007.57 1007.95 1008.37 1008.74 1009.15 1009.48 1010.06 1010.51 1010.94 1011.43 1011.75 1012.16 1012.64 1012.84 1012.91 1013.25 1013.38 1013.68 1014.03 1014.24 1014.50 1014.46
1010.51 1011.07 1011.52 1011.10 1009.47 1008.80 1008.56 1008.01 1007.55 1007.08 1006.79 1006.11 1005.64 1004.86 1004.02 1003.57 1003.59 1003.27 1003.38 1004.36 1004.49 1004.58 1005.48 1006.17 1006.66 1006.88 1007.24 1007.56 1008.00 1008.38 1008.71 1009.06 1009.37 1009.71 1010.18 1010.73 1011.21 1011.47 1011.90 1012.27 1012.74 1012.81 1013.06 1013.26 1013.71 1013.98 1014.12 1014.34 1014.53
1010.40 1010.91 1010.89 1010.41 1009.23 1008.42 1008.11 1007.42 1007.27 1006.89 1006.63 1006.01 1005.45 1005.08 1004.47 1003.69 1003.94 1003.53 1004.13 1004.80 1005.27 1005.65 1005.99 1006.43 1006.88 1007.00 1007.32 1007.66 1008.16 1008.63 1008.87 1009.13 1009.40 1009.79 1009.99 1010.42 1010.75 1011.19 1011.56 1011.95 1012.37 1012.81 1012.95 1013.07 1013.35 1013.75 1014.00 1014.14 1014.42
1010.14 1010.63 1010.53 1009.93 1008.96 1008.20 1007.68 1007.27 1006.97 1006.71 1006.31 1005.85 1005.55 1005.34 1005.18 1004.58 1004.55 1004.32 1004.57 1005.35 1005.87 1005.99 1006.48 1006.68 1006.99 1007.18 1007.20 1007.57 1008.15 1008.70 1008.99 1009.29 1009.48 1009.65 1009.90 1010.21 1010.60 1010.88 1011.35 1011.61 1012.08 1012.57 1012.71 1012.81 1013.13 1013.48 1013.78 1013.99 1014.29
1010.16 1010.80 1010.15 1009.36 1008.96 1008.23 1007.49 1007.40 1006.98 1006.50 1006.38 1006.20 1005.93 1005.74 1005.44 1004.80 1004.76 1005.06 1005.03 1005.72 1006.19 1006.48 1006.54 1006.95 1007.16 1007.48 1007.27 1007.47 1008.02 1008.75 1009.28 1009.45 1009.75 1010.06 1010.05 1010.22 1010.56 1010.79 1011.08 1011.25 1011.78 1012.38 1012.83 1012.96 1013.09 1013.35 1013.61 1013.81 1014.08
1010.36 1010.14 1009.58 1008.82 1008.44 1007.96 1007.48 1007.48 1007.26 1006.76 1006.30 1006.02 1005.86 1005.64 1005.36 1005.02 1005.12 1005.30 1005.74 1005.72 1005.90 1006.41 1006.88 1006.85 1007.17 1007.51 1007.59 1007.46 1007.89 1008.53 1009.12 1009.38 1009.55 1009.98 1010.15 1010.34 1010.52 1010.84 1011.04 1011.07 1011.50 1011.84 1012.33 1012.76 1012.96 1013.21 1013.48 1013.66 1014.02
1010.24 1010.01 1009.49 1008.86 1008.41 1008.21 1007.42 1007.43 1007.43 1006.77 1006.09 1006.16 1005.99 1005.62 1005.37 1005.21 1005.31 1005.22 1005.51 1005.94 1006.00 1006.23 1006.78 1007.19 1007.55 1007.42 1007.46 1007.44 1007.76 1008.33 1008.92 1009.33 1009.47 1009.78 1010.03 1010.21 1010.49 1010.82 1011.16 1011.46 1011.60 1011.91 1012.14 1012.71 1013.12 1013.20 1013.37 1013.61 1013.85
1010.40 1009.99 1009.53 1009.00 1008.27 1008.08 1007.83 1007.45 1006.89 1006.70 1006.16 1006.18 1005.97 1005.95 1005.58 1005.15 1005.03 1005.26 1005.10 1005.27 1005.62 1005.97 1006.32 1006.74 1007.03 1007.75 1007.51 1007.32 1007.53 1008.15 1008.63 1009.02 1009.06 1009.39 1009.97 1010.02 1010.54 1010.80 1011.13 1011.32 1011.51 1011.70 1011.99 1012.51 1012.73 1013.00 1013.14 1013.47 1013.62
1010.29 1010.07 1009.79 1009.31 1008.68 1008.17 1007.55 1006.91 1006.49 1005.46 1006.08 1005.96 1005.69 1005.66 1005.47 1005.02 1005.05 1004.63 1004.73 1005.05 1004.51 1004.74 1005.40 1005.79 1006.49 1006.92 1007.59 1007.66 1007.47 1007.52 1008.04 1008.36 1008.27 1008.57 1009.41 1009.71 1010.02 1010.33 1010.78 1011.18 1011.43 1011.50 1011.74 1011.99 1012.44 1012.77 1013.14 1013.30 1013.48
1010.56 1010.34 1009.97 1009.39 1008.87 1008.12 1007.86 1007.00 1006.73 1004.42 1005.84 1005.89 1005.82 1005.49 1005.32 1005.06 1004.90 1004.82 1004.72 1004.90 1004.90 1004.15 1004.24 1004.41 1005.63 1006.20 1007.00 1007.25 1007.25 1007.50 1007.59 1007.48 1007.81 1008.13 1008.55 1008.99 1009.49 1010.07 1010.38 1010.80 1011.14 1011.26 1011.17 1011.49 1011.91 1012.40 1012.77 1012.97 1013.08
1010.66 1010.76 1010.23 1009.40 1008.52 1008.13 1007.89 1007.29 1006.08 1005.98 1005.96 1006.12 1006.07 1005.54 1005.51 1005.40 1004.97 1004.99 1004.69 1004.71 1004.58 1003.90 1003.75 1004.03 1004.04 1004.79 1005.62 1006.43 1006.83 1007.19 1007.56 1007.81 1007.49 1007.90 1008.19 1008.54 1009.17 1009.55 1009.90 1010.17 1010.67 1010.73 1010.93 1011.46 1011.52 1012.17 1012.44 1012.69 1012.79
1011.32 1011.30 1010.90 1009.35 1008.71 1007.91 1007.74 1006.92 1006.86 1006.70 1006.57 1006.18 1006.28 1005.88 1005.74 1005.66 1005.54 1004.73 1004.61 1004.42 1003.92 1004.22 1004.03 1003.59 1003.77 1004.22 1004.67 1004.96 1006.11 1006.74 1007.28 1007.74 1007.33 1007.41 1007.83 1008.20 1008.67 1009.23 1009.67 1009.88 1009.96 1010.24 1010.63 1011.24 1011.44 1011.98 1012.23 1012.47 1012.53
1012.19 1012.02 1011.35 1010.14 1009.18 1008.81 1008.47 1007.80 1007.04 1007.03 1007.00 1006.36 1006.20 1006.16 1006.11 1005.91 1005.66 1005.17 1004.82 1004.17 1003.71 1003.64 1003.69 1004.17 1003.55 1003.68 1003.96 1004.61 1004.78 1005.40 1005.70 1006.51 1006.91 1006.95 1007.08 1007.53 1007.97 1009.03 1009.54 1009.46 1009.44 1009.54 1010.34 1010.83 1011.27 1011.70 1011.92 1012.24 1012.29
1012.66 1012.34 1011.62 1011.04 1010.10 1009.63 1009.26 1008.75 1008.18 1007.63 1007.22 1006.66 1006.38 1006.25 1006.47 1006.26 1005.91 1005.51 1005.22 1004.67 1004.10 1003.75 1003.35 1003.63 1003.63 1003.61 1003.50 1004.16 1004.86 1005.31 1005.92 1005.62 1005.98 1006.10 1006.24 1006.40 1007.20 1007.51 1008.86 1008.90 1009.12 1009.12 1009.79 1010.26 1010.89 1011.32 1011.57 1011.82 1011.78
1012.43 1012.45 1012.04 1011.25 1010.66 1010.39 1009.61 1008.82 1008.26 1007.69 1007.19 1006.95 1006.84 1006.65 1006.24 1005.96 1005.89 1005.70 1005.63 1005.18 1004.51 1004.03 1003.69 1003.22 1003.39 1003.33 1004.20 1003.84 1004.44 1004.73 1005.11 1005.11 1005.35 1004.90 1005.29 1006.51 1006.83 1007.69 1008.27 1008.35 1008.11 1008.60 1009.12 1009.30 1010.04 1010.91 1011.16 1011.71 1011.64
1012.17 1012.23 1012.23 1011.83 1011.21 1010.92 1009.89 1008.28 1007.97 1007.53 1006.84 1006.67 1006.80 1006.71 1006.40 1006.19 1005.90 1005.61 1005.64 1005.43 1005.12 1004.63 1004.18 1003.55 1003.15 1003.08 1003.16 1003.58 1003.35 1003.03 1003.30 1003.77 1003.93 1003.97 1004.06 1005.31 1004.30 1005.69 1006.83 1007.45 1007.53 1007.91 1008.43 1008.97 1009.35 1010.15 1010.61 1010.96 1011.25
1011.81 1012.06 1012.10 1012.26 1011.88 1011.55 1011.14 1009.27 1007.76 1007.48 1007.02 1006.79 1006.76 1006.48 1006.10 1005.92 1005.93 1006.00 1005.66 1005.42 1005.37 1005.07 1004.35 1003.84 1003.05 1002.52 1002.39 1002.55 1002.89 1003.38 1003.10 1003.37 1003.65 1003.84 1004.57 1003.97 1005.19 1005.18 1005.50 1006.55 1006.82 1007.51 1007.49 1007.99 1008.44 1009.15 1009.84 1010.14 1010.74
1011.75 1011.96 1012.28 1012.52 1012.69 1012.86 1011.96 1010.42 1009.05 1007.54 1007.37 1007.14 1006.89 1006.69 1006.51 1006.20 1005.55 1005.51 1005.98 1005.63 1005.14 1004.72 1004.18 1003.71 1002.81 1002.65 1001.97 1001.97 1002.17 1002.39 1002.35 1002.44 1002.44 1002.15 1002.90 1004.05 1003.64 1004.30 1004.63 1005.66 1006.16 1006.47 1006.76 1007.41 1007.67 1008.16 1008.84 1009.27 1009.87
1011.91 1012.15 1012.74 1013.10 1013.51 1013.58 1013.01 1012.28 1009.06 1007.98 1007.73 1007.62 1007.05 1006.67 1006.30 1006.14 1005.86 1005.44 1005.20 1005.08 1004.83 1004.25 1003.84 1003.27 1002.84 1002.44 1002.03 1001.28 1001.20 1001.62 1001.51 1001.25 1001.39 1001.82 1002.24 1002.44 1003.02 1003.26 1003.87 1004.80 1005.35 1005.55 1006.01 1006.61 1007.03 1007.58 1008.03 1008.40 1008.96
1012.27 1012.85 1013.54 1014.16 1014.54 1014.55 1013.37 1012.78 1009.75 1008.66 1007.85 1007.56 1007.07 1006.46 1006.13 1006.05 1005.87 1005.80 1005.26 1004.98 1004.69 1004.03 1003.64 1003.29 1002.67 1001.93 1001.02 1000.90 1000.61 1000.60 1000.74 1000.80 1001.01 1001.28 1001.49 1001.83 1002.52 1003.01 1003.49 1003.77 1004.36 1004.92 1005.64 1006.00 1006.40 1006.78 1007.40 1007.80 1008.12
1013.01 1014.32 1015.50 1015.48 1015.50 1015.00 1013.83 1012.77 1009.32 1008.37 1007.40 1007.09 1006.90 1006.41 1006.08 1006.13 1006.10 1005.77 1005.36 1004.90 1004.13 1003.46 1002.92 1002.58 1002.07 1001.22 1000.54 1000.22 999.88 999.80 999.75 1000.07 1000.30 1000.05 1000.65 1001.17 1001.85 1002.17 1002.25 1003.14 1003.85 1004.27 1004.79 1005.23 1005.81 1006.38 1006.75 1007.23 1007.63
1013.67 1014.90 1016.12 1016.42 1016.30 1015.47 1014.25 1012.19 1008.95 1007.61 1007.23 1006.87 1006.82 1006.67 1006.43 1006.29 1006.11 1005.93 1005.44 1004.76 1004.00 1003.23 1002.55 1002.02 1001.36 1000.50 999.66 999.34 999.12 998.91 998.85 999.25 999.57 999.50 999.67 1000.10 1000.71 1000.67 1001.82 1002.80 1003.23 1003.84 1004.30 1004.92 1005.52 1006.01 1006.48 1006.63 1007.18
1013.86 1014.87 1015.29 1016.16 1016.28 1015.90 1013.83 1011.34 1008.56 1007.56 1007.37 1007.03 1006.98 1007.09 1006.96 1006.52 1006.09 1005.78 1005.30 1004.43 1003.53 1002.57 1002.09 1001.53 1000.90 999.77 999.10 998.46 998.23 997.94 998.03 998.53 998.59 998.85 998.99 999.51 999.92 1000.61 1001.60 1002.26 1002.93 1003.47 1003.99 1004.34 1005.19 1005.85 1006.17 1006.21 1006.88
1013.12 1014.11 1015.52 1016.56 1016.81 1015.92 1013.19 1011.42 1009.34 1007.81 1007.50 1007.19 1007.14 1007.18 1006.63 1006.33 1005.99 1005.54 1004.93 1004.27 1003.28 1002.08 1001.28 1000.36 999.91 998.95 997.98 997.19 996.82 996.81 996.89 997.13 997.57 998.17 998.58 999.15 999.56 1000.34 1001.10 1001.98 1002.40 1003.20 1003.53 1004.13 1005.01 1005.55 1005.77 1006.01 1006.85
1013.51 1014.12 1015.18 1016.10 1016.48 1015.80 1013.93 1010.05 1008.13 1007.47 1007.06 1007.24 1007.36 1007.15 1006.83 1006.42 1006.07 1005.56 1004.75 1003.70 1003.05 1001.95 1000.83 999.84 998.88 998.01 996.96 996.12 995.76 995.73 995.90 996.32 996.80 997.26 997.91 998.39 999.21 999.94 1000.65 1001.38 1002.05 1002.81 1003.31 1003.97 1004.60 1004.98 1005.47 1005.95 1006.66
1012.80 1013.67 1014.69 1015.68 1015.75 1015.29 1014.10 1008.63 1007.44 1006.88 1007.05 1007.19 1007.18 1006.78 1006.46 1006.34 1005.88 1005.14 1004.37 1003.43 1002.82 1002.05 1000.90 999.71 998.33 997.24 996.21 995.46 995.08 995.05 995.44 995.85 996.37 996.98 997.12 997.82 998.53 999.42 1000.02 1000.70 1001.62 1002.31 1003.02 1003.57 1004.10 1004.63 1005.19 1005.83 1006.53
Wind_Speed
6 4 2 5 5 6 3 6 1 6 6 3 3 4 7 7 8 9 6 11 19 19 16 19 24 24 23 23 22 21 20 19 18 18 17 17 16 16 16 14 14 13 13 12 11 10 10 9 8
3 1 4 3 5 0 6 4 4 5 5 9 9 4 3 13 16 3 6 8 19 21 17 17 24 25 24 23 23 22 21 20 19 18 18 18 17 16 16 15 15 15 14 13 12 10 10 9 8
2 3 4 5 3 6 5 5 6 4 10 4 6 6 4 5 1 6 7 12 17 19 17 16 23 23 24 22 22 21 20 20 20 19 18 17 17 16 15 15 15 15 15 14 13 11 11 9 8
2 3 4 5 9 5 4 3 5 7 5 2 2 11 7 4 2 8 12 14 19 17 16 17 22 22 21 22 22 21 21 20 20 19 18 17 17 15 14 14 13 13 14 14 12 12 10 9 8
3 2 2 2 6 3 3 5 5 5 6 8 6 7 5 4 6 7 13 15 20 15 12 13 20 21 21 20 21 21 21 21 21 20 19 18 17 16 15 14 13 13 13 13 12 11 9 7 7
2 2 3 5 8 2 3 7 3 2 5 9 10 8 4 4 6 6 9 3 8 16 13 12 17 19 19 19 19 20 21 21 21 21 20 18 17 17 16 14 13 13 13 12 11 10 9 7 6
5 3 5 5 6 3 3 2 3 2 5 6 8 4 8 12 4 10 9 8 6 7 9 8 10 15 18 16 16 17 18 19 19 19 19 18 18 17 16 14 13 13 12 12 12 11 10 9 8
4 3 3 5 11 5 3 4 3 2 5 7 6 5 9 7 7 9 11 9 6 6 5 6 6 9 11 10 14 15 16 16 17 17 17 17 16 16 15 14 13 13 13 13 12 12 11 10 9
3 2 5 13 4 4 3 5 4 4 5 5 3 3 7 4 3 6 7 5 5 2 5 5 7 6 6 7 9 11 15 14 13 13 14 12 7 9 13 13 14 13 12 12 12 11 11 11 10
4 4 8 2 4 7 9 2 6 4 12 3 3 6 4 2 3 4 3 6 8 9 4 5 6 6 6 7 6 6 6 6 9 8 6 5 5 5 7 10 14 12 12 11 11 11 11 11 4
3 4 3 1 0 5 6 3 5 4 13 3 9 12 11 3 3 5 5 5 4 4 3 4 4 6 9 7 5 4 3 3 3 5 5 4 3 4 3 2 3 3 9 3 5 5 4 5 4
2 4 3 2 4 5 5 6 9 10 10 7 7 8 6 9 7 6 7 8 8 7 7 7 7 6 8 6 7 6 7 6 6 6 7 5 3 4 3 3 4 4 3 4 4 3 4 5 6
3 1 3 3 5 7 9 12 16 19 8 10 8 9 10 9 8 7 6 8 10 15 11 12 10 7 6 5 5 7 8 8 8 7 7 6 6 6 5 4 4 4 4 5 5 4 4 5 6
1 3 6 6 6 5 7 10 8 14 6 10 7 9 8 9 8 5 5 7 8 11 13 15 12 11 7 10 8 7 7 8 6 6 8 9 6 6 6 5 5 5 5 5 5 5 5 5 5
2 4 6 7 8 8 10 12 18 12 3 8 5 7 8 9 10 8 6 8 8 8 7 12 16 16 14 10 6 4 4 4 6 6 6 9 8 8 8 6 6 7 5 5 4 4 4 4 5
3 4 3 5 1 6 9 10 2 2 2 7 2 1 6 7 8 9 8 8 7 7 9 9 11 14 15 16 9 7 5 5 6 5 5 9 9 7 7 6 7 5 5 5 5 5 4 5 5
5 1 2 7 3 5 3 4 3 8 5 7 6 4 3 6 7 8 9 10 10 7 6 8 9 12 15 12 11 12 12 10 9 6 7 10 11 8 8 7 6 7 5 5 5 4 4 4 4
3 3 3 4 6 5 5 6 5 8 5 7 8 6 3 3 6 7 9 9 10 10 10 6 6 9 12 9 7 5 7 7 7 7 8 11 9 11 10 7 7 7 6 5 5 5 5 3 4
2 3 4 4 3 6 8 10 8 8 6 6 7 7 7 5 4 4 7 9 9 9 10 9 5 7 4 7 8 6 9 9 7 9 9 7 5 9 9 7 8 8 8 8 8 4 5 4 3
4 3 4 5 5 5 11 22 12 7 7 6 5 7 7 4 5 6 5 7 8 9 10 11 8 7 7 6 7 5 8 8 9 8 8 11 19 11 11 9 9 10 6 7 8 7 3 4 6
3 4 3 5 3 4 5 11 7 1 2 4 5 6 8 9 7 5 6 6 7 8 9 9 11 11 7 10 3 1 3 2 3 3 6 13 13 12 11 11 8 9 8 8 10 10 9 6 4
3 3 2 3 5 4 5 9 7 6 6 4 8 9 7 9 8 5 5 7 9 8 7 8 9 11 9 9 7 10 11 10 9 8 8 10 12 12 11 10 10 10 8 8 9 9 9 5 5
5 1 1 2 3 1 4 3 7 4 5 5 10 8 8 8 8 10 10 9 9 9 9 9 9 11 13 8 11 11 14 11 5 3 7 6 7 8 10 11 10 9 8 8 10 9 9 7 4
1 4 5 3 2 2 5 4 5 3 6 5 5 9 7 8 9 8 10 11 10 9 9 8 9 11 11 9 12 17 17 14 8 5 6 6 4 6 9 8 7 7 8 9 9 9 11 9 4
7 7 5 6 4 5 1 5 9 8 14 7 8 9 9 7 8 10 13 14 15 15 13 11 9 13 9 11 11 14 17 15 16 12 9 7 5 4 5 7 8 7 9 8 8 9 8 9 7
4 7 6 5 4 5 3 9 10 7 8 7 8 8 8 9 7 8 13 14 15 17 15 12 12 13 12 9 13 12 15 11 12 11 8 7 7 6 7 8 8 9 9 8 8 6 6 8 6
2 4 4 1 2 2 6 8 12 12 6 6 7 6 10 10 9 11 12 13 16 16 17 14 14 15 15 15 12 13 13 14 11 11 8 7 5 6 8 9 9 9 9 9 8 6 6 8 6
6 6 2 3 2 5 5 7 12 14 10 8 7 11 13 7 9 12 13 14 16 18 16 17 15 16 17 16 13 12 14 15 13 8 9 8 6 8 9 9 9 9 9 9 9 6 5 7 5
2 1 4 3 5 4 5 7 7 7 6 6 8 12 11 9 9 9 12 17 15 16 15 17 18 16 15 14 14 13 11 10 9 9 8 8 8 10 11 11 11 10 9 8 8 7 8 9 7
5 7 6 5 6 4 4 15 7 10 5 6 10 11 13 7 7 8 9 13 17 17 17 19 18 16 14 12 11 12 9 10 10 10 10 10 11 11 12 11 11 11 10 10 10 9 8 9 8
Wind_Direction
325 329 87 45 55 62 254 256 230 314 328 259 204 186 214 193 176 213 329 173 132 148 160 169 168 160 157 156 152 149 149 148 145 143 144 143 144 149 150 154 152 154 154 152 149 141 132 126 120
335 146 45 81 92 123 262 247 198 229 258 285 283 208 224 247 215 323 102 208 146 149 157 171 172 163 162 160 155 153 154 152 150 151 151 152 155 156 157 158 160 160 161 154 148 143 136 134 129
271 17 95 101 132 211 220 218 180 247 260 231 292 242 253 246 150 200 247 158 144 151 159 172 177 167 163 161 157 157 157 154 154 155 157 160 158 161 163 166 166 166 163 155 155 151 146 145 132
46 5 54 106 239 256 220 232 244 315 318 244 256 298 310 318 258 180 137 147 145 155 162 173 178 167 168 164 162 162 161 158 158 160 162 164 165 165 169 172 170 168 165 161 162 158 157 152 139
43 80 86 223 248 222 252 258 283 322 284 283 320 277 261 35 347 114 133 158 149 156 158 174 178 172 169 169 166 167 166 164 164 166 167 168 170 169 172 177 177 172 172 167 166 164 161 164 150
82 100 89 243 246 141 269 237 256 201 283 291 338 324 333 313 351 69 104 127 150 152 157 173 181 175 173 172 174 174 172 171 170 170 170 172 173 172 177 180 182 178 176 170 171 170 170 171 167
160 125 210 243 269 354 266 210 260 320 286 308 298 352 300 356 56 89 75 74 105 133 149 162 182 178 173 175 178 181 179 178 175 175 174 174 174 178 181 181 184 187 178 174 176 177 178 178 190
125 117 215 232 259 270 257 337 264 268 282 327 342 2 340 333 14 81 77 73 72 111 155 163 168 185 173 171 181 187 188 187 184 180 178 178 179 179 184 183 188 193 186 180 182 183 184 185 199
130 180 218 235 183 222 273 10 342 309 268 352 309 24 294 334 43 26 91 84 88 127 159 176 175 186 160 148 175 189 198 194 192 192 188 179 183 185 191 184 191 195 198 191 187 189 190 193 202
171 208 216 229 219 271 289 301 323 348 310 288 289 311 333 349 47 59 0 187 180 193 205 187 178 176 154 164 160 163 188 190 195 201 195 193 177 185 192 191 198 195 200 200 196 196 197 203 196
196 222 226 70 18 303 314 305 290 327 289 68 327 314 321 313 242 174 183 211 209 194 172 197 221 186 178 176 156 161 169 169 181 193 187 180 170 187 192 163 187 177 206 192 204 202 200 195 196
188 229 221 260 316 299 273 307 274 256 268 285 299 272 285 307 300 235 231 197 187 203 187 190 198 224 213 181 176 181 185 194 190 190 198 172 180 178 179 180 188 185 178 182 190 198 191 204 209
186 254 301 270 261 258 303 281 280 269 301 279 278 288 285 287 287 288 242 273 220 195 193 195 187 199 208 227 199 179 197 202 202 179 195 188 192 188 164 185 187 193 173 193 196 193 203 207 214
258 264 271 256 225 253 233 268 272 281 30 316 298 284 290 298 291 299 283 254 250 230 209 175 186 193 188 219 212 221 212 198 189 191 197 194 192 182 183 185 198 206 199 192 186 196 200 211 204
271 300 306 234 218 216 197 251 251 280 19 274 0 343 348 341 337 308 287 272 255 246 223 193 193 186 187 204 211 200 223 219 187 209 191 191 192 195 195 185 192 213 197 199 178 194 190 207 208
28 44 341 285 152 249 170 241 298 36 27 314 312 30 342 334 328 328 327 304 285 262 223 204 194 195 200 194 192 201 195 215 214 194 179 197 204 195 199 201 193 196 179 199 191 187 198 212 208
3 200 277 312 357 321 166 278 300 344 331 297 300 312 319 319 328 321 319 326 325 303 259 258 197 194 199 212 201 206 200 199 221 199 187 193 202 185 215 205 202 170 177 195 194 197 191 199 216
266 333 312 263 320 14 290 240 274 284 291 280 303 302 289 299 287 311 316 321 322 319 315 254 219 230 194 198 200 209 224 223 203 200 205 198 203 178 209 197 193 171 177 180 182 196 183 201 210
215 207 239 279 306 358 293 287 278 266 273 261 271 297 306 312 257 252 274 297 311 312 319 309 210 220 219 181 181 194 213 212 216 206 190 171 169 194 202 206 180 179 192 191 184 178 176 210 159
202 191 231 281 302 339 306 299 296 234 227 204 232 276 284 266 261 286 295 300 301 290 300 305 286 229 194 210 221 196 194 214 226 204 190 261 187 178 189 194 192 188 181 177 176 182 166 187 188
222 197 223 233 294 265 310 285 307 0 197 218 288 253 271 283 307 301 301 295 284 288 287 285 289 293 212 213 143 54 83 73 146 200 212 196 203 178 177 199 185 185 184 190 186 186 186 180 193
263 200 203 272 20 304 57 280 254 258 279 313 280 286 291 292 305 295 275 281 281 270 264 261 273 275 273 210 201 204 220 209 219 209 196 192 177 190 185 187 186 189 187 192 189 182 193 140 174
227 1 344 301 269 351 272 284 264 323 313 322 287 283 281 275 273 292 299 298 291 289 281 275 261 263 260 245 214 220 225 216 208 166 165 168 184 176 177 190 186 187 190 196 180 176 181 191 159
30 14 3 56 77 12 260 189 266 215 181 277 275 293 286 297 307 306 298 301 300 292 283 275 273 257 256 240 223 223 229 228 208 183 181 178 174 175 186 171 179 186 193 184 186 182 185 180 167
67 50 336 344 9 228 359 309 245 252 284 268 269 281 298 298 301 308 310 311 311 308 301 292 274 276 258 240 235 218 222 221 221 200 199 160 162 195 174 164 181 188 197 188 175 178 179 177 171
216 154 166 245 228 250 13 249 253 228 239 267 234 276 297 292 292 300 302 301 303 301 298 292 286 276 278 241 233 224 220 220 223 210 187 180 187 166 146 179 182 193 177 172 170 176 184 165 163
174 180 198 200 236 17 224 293 300 286 293 292 296 280 276 289 317 318 314 312 304 299 294 291 287 278 267 252 233 220 214 215 205 202 185 181 154 148 164 176 182 178 173 164 165 176 176 155 151
159 171 86 16 271 260 252 249 241 289 283 292 326 305 302 302 317 319 321 318 309 298 290 292 285 276 272 253 234 221 213 209 203 178 171 170 151 151 158 176 170 169 168 158 168 166 146 141 144
154 166 61 136 157 216 315 254 221 249 272 302 311 302 304 296 308 308 311 326 314 307 289 296 293 287 279 241 228 215 201 186 167 168 171 172 149 163 170 172 164 170 160 164 166 160 150 149 148
166 191 151 138 255 226 201 269 242 262 316 328 295 325 315 287 294 284 313 332 327 327 318 305 305 298 279 237 213 208 192 171 168 179 173 159 174 171 165 160 163 162 167 167 162 155 154 157 163